Location: ?????
(33.2744°N, 35.6721°E)
Time: 03:22:25
(UTC+00:00)

Daily predictions for brighter satellites

Satellite Brightness Start Highest point End
(mag) Time Altitude Azimuth Time Altitude Azimuth Time Altitude Azimuth
Cosmos 2297 Rocket 4.0 00:07:34 26° ENE 00:07:34 26° ENE 00:11:02 10° NE
USA 267 4.2 00:14:07 10° NNE 00:18:56 39° N 00:18:56 39° N
IDEFIX/ARIANE 42P 4.0 00:22:08 10° NNE 00:26:02 34° ENE 00:26:02 34° ENE
Cosmos 2227 Rocket 3.2 00:32:25 42° E 00:32:25 42° E 00:37:04 10° NE
USA 238 DEB 4.0 00:32:50 58° ESE 00:32:50 58° ESE 00:39:10 10° NE
USA 238 4.0 00:32:54 57° ESE 00:32:54 57° ESE 00:39:16 10° NE
SL-4 R/B 4.2 01:00:09 19° ESE 01:00:09 19° ESE 01:01:33 10° ESE
NOSS 3-2 (A) 3.2 01:00:11 84° NE 01:00:11 84° NE 01:06:08 10° NNE
ATLAS 5 CENTAUR R/B 4.5 00:57:51 13° S 01:04:35 26° SE 01:07:58 10° ENE
Cosmos 2082 4.4 01:03:42 39° SSE 01:05:16 50° ESE 01:10:46 10° NNE
ARIANE 5 R/B 4.2 01:03:48 10° N 01:06:05 23° NNW 01:06:05 23° NNW
PSLV R/B 4.3 01:05:51 10° NNE 01:10:06 50° E 01:10:23 49° ESE
Cosmos 389 Rocket 4.1 01:13:42 32° E 01:13:42 32° E 01:16:52 10° NNE
Meteor 1-18 Rocket 4.1 01:16:49 66° SW 01:17:37 79° W 01:23:26 10° N
CENTAUR R/B 2.7 01:17:09 38° S 01:19:07 58° ESE 01:25:25 10° NE
COSMOS 2441 4.4 01:15:07 10° NNE 01:19:54 72° ESE 01:20:53 54° SSE
ASTRO E2 3.8 01:21:33 38° ESE 01:21:33 38° ESE 01:24:10 10° ESE
STARLINK-1060 4.3 01:23:13 45° N 01:23:13 45° N 01:26:29 10° NE
STARLINK-1031 4.5 01:27:56 40° NNW 01:27:56 40° NNW 01:31:18 10° NNE
STARLINK-1030 4.3 01:27:59 45° NNW 01:27:59 45° NNW 01:31:25 10° NNE
COBE Rocket 3.7 01:27:02 70° SW 01:27:24 74° W 01:32:10 10° NNW
NOSS 3-2 (C) 3.2 01:26:42 51° SSW 01:28:15 87° ESE 01:34:26 10° NNE
Cosmos 1782 Rocket 3.3 01:24:43 10° N 01:29:03 86° W 01:29:07 85° SW
Cosmos 1900 4.1 01:28:52 72° WSW 01:29:11 75° WNW 01:34:05 10° NNE
Cosmos 1634 Rocket 4.0 01:24:17 10° NNW 01:30:16 54° W 01:31:23 47° SW
STARLINK-1020 4.3 01:32:48 42° NNW 01:32:48 42° NNW 01:36:22 10° NNE
Cosmos 2237 Rocket 2.1 01:29:28 10° NNW 01:35:10 88° WSW 01:40:52 10° SSE
Gblst 52 Del rocket 4.5 01:30:20 10° NW 01:36:26 68° NE 01:41:57 10° SE
STARLINK-1052 4.3 01:37:34 39° NNW 01:37:34 39° NNW 01:41:18 10° NNE
Meteor 2-4 Rocket 3.9 01:34:38 15° S 01:39:40 80° E 01:45:37 10° N
Cosmos 1515 4.5 01:44:36 37° NW 01:44:36 37° NW 01:47:17 10° N
PAYLOAD A 4.0 01:39:33 10° NNE 01:44:59 88° WNW 01:48:48 19° SSW
STARLINK-1041 4.5 01:47:20 28° S 01:48:59 44° SE 01:52:55 10° ENE
Cosmos 2263 Rocket 4.5 01:45:47 10° SSE 01:50:05 23° E 01:54:24 10° NE
Cosmos 2297 Rocket 3.0 01:49:23 30° WNW 01:50:06 31° WNW 01:55:06 10° N
Cosmos 2219 4.4 01:51:02 23° WNW 01:51:23 23° WNW 01:55:54 10° N
Meteor 1-31 Rocket 4.2 01:48:28 10° NNE 01:52:10 38° E 01:55:50 10° SSE
STARLINK-1038 4.3 01:52:07 28° S 01:53:56 49° SE 01:57:57 10° NE
CZ-4B R/B 2.3 01:55:12 34° NW 01:55:12 34° NW 01:57:31 10° NNW
Cosmos 2221 Rocket 3.5 01:52:53 33° SSW 01:54:44 62° W 01:59:09 10° N
NOSS 0 Rocket 4.3 01:50:51 10° NW 01:56:29 39° WSW 02:02:07 10° S
Meteor 2-9 Rocket 4.2 01:51:42 10° NNW 01:57:33 74° W 02:03:22 10° S
STARLINK-1046 4.1 01:56:53 27° SSW 01:58:54 56° SE 02:02:57 10° NE
Cosmos 1674 Rocket 4.3 01:55:22 10° S 01:59:41 55° E 02:03:59 10° NNE
STARLINK-1039 3.9 02:01:42 26° SSW 02:03:53 63° SE 02:07:59 10° NE
Meteor 1-13 Rocket 4.2 01:59:48 10° S 02:05:38 89° W 02:11:23 10° N
IDEFIX/ARIANE 42P 3.8 02:02:18 10° NNW 02:06:14 22° WNW 02:06:50 22° WNW
STARLINK-1045 3.7 02:06:28 24° SSW 02:08:50 72° SE 02:12:58 10° NE
Sich 1 Rocket 3.9 02:05:46 10° NNW 02:09:53 40° W 02:13:58 10° SSW
ATLAS 3B R/B 2.7 02:04:38 10° SSW 02:11:21 81° ESE 02:18:01 10° NNE
STARLINK-1050 3.6 02:11:19 23° SW 02:13:52 82° SE 02:18:00 10° NE
SeaSat 1 2.4 02:10:02 10° SSE 02:14:57 89° WSW 02:19:55 10° NNW
Cosmos 2227 Rocket 3.5 02:14:16 19° W 02:15:56 22° WNW 02:20:12 10° N
Spot 2 4.4 02:10:52 10° N 02:16:01 82° WNW 02:21:08 10° SSW
H-2A R/B 3.0 02:12:23 10° NNE 02:16:24 56° E 02:20:15 10° S
Cosmos 1048 Rocket 4.0 02:11:20 10° NNW 02:16:35 60° WSW 02:21:51 10° S
Okean 2 Rocket 3.1 02:12:30 10° NNW 02:16:57 62° W 02:21:23 10° S
Cosmos 2151 Rocket 3.6 02:12:49 10° N 02:17:13 85° E 02:21:36 10° S
Nadezhda 4 Rocket 4.1 02:12:00 10° SSW 02:18:08 56° W 02:24:22 10° N
Cosmos 1125 Rocket 4.4 02:16:02 21° WSW 02:18:18 29° WNW 02:22:55 10° N
STARLINK-1055 3.5 02:16:05 21° SW 02:18:48 89° WNW 02:22:58 10° NE
Chunghua 1 4.4 02:16:54 24° W 02:18:59 82° SSW 02:22:41 10° ESE
CZ-2C R/B 2.6 02:14:50 10° N 02:19:09 43° WNW 02:23:01 12° SW
Meteor 1-4 Rocket 2.6 02:17:41 10° SSW 02:21:23 61° W 02:25:07 10° N
Cosmos 1356 3.4 02:18:54 10° N 02:22:20 83° E 02:25:44 10° S
STARLINK-1022 3.5 02:20:52 19° SW 02:23:48 80° NW 02:27:57 10° NE
STARLINK-1042 3.6 02:25:39 17° SW 02:28:46 72° NW 02:32:54 10° NE
Cosmos 1300 Rocket 3.6 02:26:10 10° NNW 02:30:21 51° W 02:34:32 10° S
ADEOS 4.3 02:26:16 10° N 02:30:50 32° WNW 02:35:23 10° SW
Cosmos 1689 Rocket 3.1 02:28:17 10° SSW 02:30:50 25° W 02:33:24 10° NW
USA 234 3.3 02:26:56 10° SSE 02:33:20 59° SW 02:39:47 10° NW
STARLINK-1056 3.7 02:30:25 15° SW 02:33:44 64° NW 02:37:51 10° NE
SL-4 R/B 3.8 02:35:52 14° WSW 02:36:40 15° SW 02:39:04 10° SSW
STARLINK-1054 3.8 02:35:12 13° WSW 02:38:43 57° NW 02:42:48 10° NE
STARLINK-60 3.8 02:36:47 10° WNW 02:39:40 30° SW 02:42:34 10° SSE
Cosmos 1378 Rocket 3.5 02:37:17 10° SSW 02:41:32 62° W 02:45:51 10° N
Meteor 1-23 Rocket 4.2 02:36:35 10° S 02:42:15 80° W 02:48:00 10° N
Cosmos 1484 Rocket 2.7 02:38:42 10° N 02:42:28 59° WNW 02:46:09 10° SSW
GPS 2-04 Rocket1 4.1 02:41:06 13° WSW 02:43:23 20° SSW 02:46:09 10° SSE
STARLINK-1062 3.9 02:39:58 12° WSW 02:43:42 51° NW 02:47:45 10° NE
SJ-12 4.0 02:42:47 10° NNE 02:46:54 85° ESE 02:50:57 10° S
STARLINK-1053 4.1 02:44:46 10° WSW 02:48:42 46° NW 02:52:42 10° NNE
Cosmos 1066 Rocket 4.3 02:44:11 10° SSW 02:49:58 75° W 02:55:51 10° N
PSLV R/B 4.4 02:46:07 10° S 02:50:05 40° W 02:54:03 10° NNW
STARLINK-29 2.9 02:48:29 10° NW 02:51:43 65° SW 02:54:55 10° SE
SL-16 R/B 2.3 02:46:35 10° NNW 02:52:05 53° WSW 02:57:33 10° S
Meteor PRIRODA 3.7 02:49:28 10° N 02:53:03 56° WNW 02:56:38 10° SSW
STARLINK-1061 4.2 02:49:45 10° WSW 02:53:41 41° NW 02:57:37 10° NNE
STARLINK-1067 4.4 02:54:49 10° WSW 02:58:40 38° NW 03:02:33 10° NNE
FENGYUN 3A 3.7 02:54:05 10° N 02:59:27 68° WNW 03:04:46 10° SSW
Okean 2 4.0 02:55:52 10° S 02:59:56 62° E 03:04:01 10° NNE
ASTRO E2 3.7 02:56:55 10° W 03:00:27 30° SSW 03:03:57 10° SE
